[[{"header":{"parameterUnit":"m.s-1","parameterCategory":2,"la1":30.2991,"la2":30.254,"lo1":-89.0895,"lo2":-89.0444,"dy":0.0017,"dx":0.0017,"nx":28,"ny":28,"refTime":"2024-03-11T09:00:00:Z","depth":"0","parameterNumber":2,"parameterNumberName":"U-component_of_CURRENTS"},"data":[0,0,0,0,0,0,0,0,0,0,0,0,0,0,0,0,0,0,0,0,0,0,0,0,0,0,0,0,0,0,0,0,0,0,0,0,0,0,0,0,0,0,0,0,0,0,0,0,0,0,0,0,0,0,0,0,0,0,-0.2421,-0.2422,0,-0.2446,-0.2446,-0.2445,-0.2411,-0.2411,-0.241,-0.241,-0.2274,-0.2271,-0.2268,0,0,0,0,0,0,0,0,0,0,0,0,0,-0.2195,-0.22,-0.2421,-0.2422,-0.2423,-0.2446,-0.2446,-0.2445,-0.2411,-0.2411,-0.241,-0.241,-0.2275,-0.2271,-0.2267,0,0,0,0,0,0,0,0,0,0,0,0,0,-0.2257,-0.2201,-0.242,-0.2414,-0.2415,-0.2446,-0.2446,-0.2445,-0.2412,-0.2411,-0.241,-0.2409,-0.2276,-0.2271,-0.2267,-0.2253,0,0,-0.2252,-0.225,0,0,0,0,0,0,0,0,-0.2254,-0.2264,-0.2414,-0.2415,-0.2415,-0.2432,-0.2317,-0.2376,-0.2412,-0.2405,-0.241,-0.2409,-0.2317,-0.2309,-0.2307,-0.2247,-0.2241,-0.2252,-0.2249,-0.2247,-0.2246,0,0,0,0,0,0,0,-0.225,-0.2262,-0.2423,-0.2416,-0.2416,-0.236,-0.2369,-0.2327,-0.2356,-0.2405,-0.2405,-0.242,-0.2315,-0.2312,-0.2303,-0.2239,-0.2252,-0.2248,-0.2245,-0.2243,-0.2179,-0.218,0,0,0,0,0,0,-0.2272,-0.226,-0.2422,-0.2424,-0.234,-0.2366,-0.2375,-0.2421,-0.236,-0.2353,-0.2421,-0.2419,-0.232,-0.2309,-0.2298,-0.2304,-0.2247,-0.2243,-0.224,-0.2178,-0.2179,-0.2181,0,0,0,0,0,0,-0.2267,-0.2287,-0.2421,-0.2346,-0.236,-0.2373,-0.2423,-0.2422,-0.2421,-0.2375,-0.2363,-0.2423,-0.2319,-0.2304,-0.2272,-0.2297,-0.2241,-0.2236,-0.2177,-0.2178,-0.218,-0.2299,0,0,0,0,0,0,-0.2261,-0.2286,-0.2311,-0.2349,-0.2366,-0.2452,-0.2425,-0.2423,-0.2436,-0.2433,-0.2372,-0.2359,-0.2317,-0.228,-0.2267,-0.229,-0.2233,-0.2175,-0.2177,-0.2179,-0.2294,-0.2304,-0.2314,0,0,0,0,0,-0.2253,-0.23,-0.2313,-0.2331,-0.2406,-0.2454,-0.2457,-0.2455,-0.2437,-0.2447,-0.2406,-0.2361,-0.2284,-0.2277,-0.2262,-0.2284,-0.2174,-0.2177,-0.2179,-0.2289,-0.2302,-0.2314,0,0,0,0,0,0,-0.2207,-0.2303,-0.2317,-0.2388,-0.2424,-0.2452,-0.2465,-0.2462,-0.2439,-0.2427,-0.237,-0.2355,-0.2338,-0.2293,-0.2286,-0.2272,-0.2224,-0.2224,-0.2312,-0.2324,-0.2334,-0.2342,-0.2229,0,0,0,0,0,-0.2216,-0.2275,-0.2345,-0.2394,-0.2424,-0.2443,-0.2456,-0.2461,-0.2457,-0.2447,-0.2409,-0.2366,-0.2339,-0.2317,-0.2282,-0.2268,-0.2243,-0.2274,-0.2284,-0.2293,-0.229,-0.2282,-0.2292,-0.2189,-0.2189,-0.2189,0,0,-0.2205,-0.2268,-0.2297,-0.2387,-0.2414,-0.2469,-0.2447,-0.2483,-0.2508,-0.2433,-0.2436,-0.2396,-0.2343,-0.2337,-0.2325,-0.23,-0.2316,-0.2296,-0.2305,-0.2296,-0.2286,-0.2296,-0.2305,-0.2191,-0.219,-0.219,0,0,-0.223,-0.2283,-0.2348,-0.2393,-0.2458,-0.2476,-0.2493,-0.253,-0.2527,-0.253,-0.2489,-0.2467,-0.2417,-0.2398,-0.2377,-0.2418,-0.237,-0.2407,-0.2461,-0.2455,-0.2464,-0.2471,-0.2483,-0.249,-0.2411,-0.2412,-0.2412,0,-0.2217,-0.232,-0.2363,-0.2441,-0.2483,-0.2489,-0.2556,-0.256,-0.257,-0.2573,-0.2542,-0.2495,-0.245,-0.2452,-0.2468,-0.2442,-0.2433,-0.2423,-0.247,-0.2476,-0.2481,-0.2492,-0.2498,-0.2418,-0.2417,-0.2416,-0.2416,0,-0.2293,-0.2376,-0.2418,-0.2526,-0.2565,-0.2621,-0.2658,-0.2672,-0.266,-0.266,-0.2653,-0.2597,-0.2568,-0.2561,-0.2522,-0.2543,-0.2526,-0.2488,-0.2444,-0.2499,-0.2506,-0.2511,-0.2426,-0.2424,-0.2422,-0.2421,0,0,-0.2268,-0.2445,-0.2453,-0.2527,-0.2619,-0.2661,-0.2709,-0.276,-0.2783,-0.2762,-0.2787,-0.274,-0.2701,-0.2675,-0.263,-0.2622,-0.2661,-0.2574,-0.2571,-0.2595,-0.2665,-0.26,-0.2598,-0.2632,-0.2633,-0.2633,-0.2667,0,-0.2317,-0.2469,-0.2541,-0.2659,-0.2744,-0.2783,-0.2829,-0.2859,-0.2858,-0.2874,-0.2824,-0.2813,-0.2749,-0.2731,-0.2718,-0.2669,-0.2672,-0.2655,-0.2598,-0.2597,-0.2538,-0.26,-0.2385,-0.2391,-0.2671,-0.2672,-0.2672,0,-0.2357,-0.2466,-0.2592,-0.2755,-0.2793,-0.2842,-0.2912,-0.296,-0.298,-0.2979,-0.2961,-0.2917,-0.2899,-0.2829,-0.2786,-0.2779,-0.2733,-0.2694,-0.2693,-0.2587,-0.2538,-0.2373,-0.2388,-0.2344,-0.2678,-0.2678,-0.2677,0,-0.2291,-0.2494,-0.259,-0.2644,-0.2814,-0.2855,-0.2921,-0.2967,-0.3002,-0.3028,-0.3041,-0.3014,-0.2988,-0.2933,-0.2847,-0.2819,-0.2804,-0.2755,-0.2661,-0.2657,-0.2436,-0.2411,-0.2399,-0.2732,-0.2732,-0.2732,-0.2732,0,-0.2301,-0.2384,-0.2565,-0.2615,-0.2713,-0.2837,-0.2904,-0.296,-0.3031,-0.3032,-0.3072,-0.3046,-0.3008,-0.2981,-0.29,-0.2803,-0.2848,-0.2682,-0.2659,-0.2475,-0.2454,-0.2372,-0.2386,-0.2733,-0.2733,-0.2733,-0.2733,0,-0.2194,-0.2324,-0.2445,-0.2629,-0.2679,-0.2728,-0.2883,-0.2905,-0.3019,-0.3021,-0.3026,-0.3082,-0.3026,-0.3006,-0.2928,-0.2861,-0.2706,-0.2736,-0.2538,-0.2491,-0.2331,-0.2359,-0.2314,-0.2265,-0.2631,-0.2629,-0.2628,0,-0.2156,-0.2205,-0.2389,-0.2412,-0.2485,-0.2596,-0.2631,-0.2826,-0.2842,-0.2983,-0.2941,-0.2984,-0.2883,-0.2845,-0.2743,-0.2648,-0.2628,-0.2451,-0.2344,-0.2309,-0.2324,-0.2336,-0.23,-0.2115,-0.211,-0.2105,-0.2102,0,-0.2057,-0.2101,-0.217,-0.2226,-0.2276,-0.236,-0.2442,-0.2477,-0.2644,-0.2672,-0.2647,-0.2615,-0.2624,-0.243,-0.2429,-0.2345,-0.2347,-0.2358,-0.2348,-0.195,-0.193,-0.1875,-0.2146,-0.2063,-0.2067,-0.207,-0.2072,-0.2074,-0.1926,-0.1924,-0.1973,-0.2003,-0.2048,-0.2042,-0.2047,-0.2115,-0.2129,-0.2125,-0.223,-0.2141,-0.2132,-0.2055,-0.2046,-0.195,-0.204,-0.1826,-0.1878,-0.1907,-0.1806,-0.2021,-0.1896,-0.1898,-0.1901,-0.1903,-0.1905,0,-0.1766,-0.1748,-0.1743,-0.1766,-0.171,-0.182,-0.1843,-0.1809,-0.1723,-0.1738,-0.1679,-0.1586,-0.147,-0.1564,-0.1511,-0.1463,-0.1451,-0.1459,-0.1397,-0.1396,-0.1571,-0.1491,-0.1237,-0.1237,-0.1237,-0.1237,-0.1237,-0.1237,-0.1679,-0.1594,-0.1584,-0.1423,-0.1417,-0.1334,-0.1309,-0.1263,-0.1262,-0.113,-0.1096,-0.1126,-0.1209,-0.1259,-0.1216,-0.1188,-0.1207,-0.1125,-0.1274,-0.1355,-0.1392,-0.1428,-0.1355,-0.1077,-0.1077,-0.0958,-0.0958,-0.0957]},{"header":{"parameterUnit":"m.s-1","parameterCategory":2,"la1":30.2991,"la2":30.254,"lo1":-89.0895,"lo2":-89.0444,"dy":0.0017,"dx":0.0017,"nx":28,"ny":28,"refTime":"2024-03-11T09:00:00:Z","depth":"0","parameterNumber":3,"parameterNumberName":"V-component_of_CURRENTS"},"data":[0,0,0,0,0,0,0,0,0,0,0,0,0,0,0,0,0,0,0,0,0,0,0,0,0,0,0,0,0,0,0,0,0,0,0,0,0,0,0,0,0,0,0,0,0,0,0,0,0,0,0,0,0,0,0,0,0,0,-0.028,-0.0281,0,-0.03,-0.03,-0.03,-0.0319,-0.0319,-0.0319,-0.032,-0.032,-0.032,-0.0319,0,0,0,0,0,0,0,0,0,0,0,0,0,-0.018,-0.0182,-0.028,-0.0281,-0.0281,-0.03,-0.03,-0.03,-0.0318,-0.0319,-0.0319,-0.032,-0.032,-0.032,-0.0319,0,0,0,0,0,0,0,0,0,0,0,0,0,-0.0212,-0.0182,-0.028,-0.0294,-0.0295,-0.03,-0.03,-0.03,-0.0318,-0.0319,-0.032,-0.032,-0.032,-0.032,-0.0319,-0.0303,0,0,-0.0317,-0.0317,0,0,0,0,0,0,0,0,-0.021,-0.0216,-0.0291,-0.0293,-0.0295,-0.0309,-0.0265,-0.0301,-0.0318,-0.0307,-0.032,-0.032,-0.0315,-0.0315,-0.0315,-0.0303,-0.0303,-0.0317,-0.0317,-0.0317,-0.0317,0,0,0,0,0,0,0,-0.0208,-0.0214,-0.0286,-0.0292,-0.0294,-0.0273,-0.0278,-0.0272,-0.0306,-0.0308,-0.031,-0.0316,-0.0316,-0.0316,-0.0315,-0.0303,-0.0317,-0.0317,-0.0317,-0.0316,-0.0281,-0.0281,0,0,0,0,0,0,-0.0214,-0.0213,-0.0285,-0.0287,-0.0256,-0.0274,-0.0281,-0.0302,-0.0306,-0.0308,-0.0315,-0.0317,-0.0316,-0.0316,-0.0315,-0.0294,-0.0317,-0.0316,-0.0316,-0.0282,-0.0281,-0.0281,0,0,0,0,0,0,-0.0212,-0.0221,-0.0285,-0.0251,-0.0258,-0.0276,-0.03,-0.0303,-0.0304,-0.0312,-0.0313,-0.0314,-0.0317,-0.0316,-0.0308,-0.0294,-0.0316,-0.0315,-0.0283,-0.0282,-0.0281,-0.0253,0,0,0,0,0,0,-0.0209,-0.022,-0.0232,-0.0252,-0.026,-0.0285,-0.03,-0.0303,-0.0307,-0.0309,-0.0312,-0.0312,-0.0317,-0.0309,-0.0308,-0.0294,-0.0315,-0.0283,-0.0282,-0.0281,-0.0254,-0.0251,-0.0248,0,0,0,0,0,-0.0206,-0.0225,-0.0233,-0.0241,-0.0278,-0.0285,-0.0286,-0.0299,-0.0306,-0.0303,-0.0306,-0.0312,-0.0301,-0.0308,-0.0307,-0.0292,-0.0284,-0.0283,-0.0281,-0.0256,-0.0252,-0.0248,0,0,0,0,0,0,-0.0189,-0.0229,-0.0238,-0.0269,-0.0274,-0.0289,-0.0293,-0.0296,-0.0296,-0.0299,-0.0304,-0.0304,-0.0293,-0.0295,-0.0303,-0.0279,-0.0293,-0.0292,-0.0274,-0.027,-0.0267,-0.0265,-0.0315,0,0,0,0,0,-0.0191,-0.0216,-0.0238,-0.026,-0.0266,-0.0276,-0.0279,-0.0285,-0.0291,-0.0292,-0.0291,-0.029,-0.0285,-0.0281,-0.0278,-0.0262,-0.0254,-0.0252,-0.0249,-0.0247,-0.0244,-0.0225,-0.022,-0.0276,-0.0276,-0.0276,0,0,-0.0192,-0.0215,-0.0231,-0.0257,-0.0266,-0.027,-0.0279,-0.0286,-0.0282,-0.029,-0.0282,-0.0279,-0.0279,-0.0264,-0.0259,-0.0265,-0.0222,-0.0245,-0.0243,-0.0241,-0.0223,-0.0217,-0.0212,-0.0275,-0.0275,-0.0276,0,0,-0.0206,-0.0226,-0.0251,-0.0253,-0.0266,-0.0265,-0.0266,-0.0273,-0.027,-0.026,-0.0265,-0.0249,-0.0245,-0.0235,-0.0232,-0.0207,-0.0208,-0.021,-0.019,-0.0171,-0.0166,-0.0162,-0.0128,-0.0121,-0.0207,-0.0207,-0.0207,0,-0.0208,-0.0243,-0.0253,-0.0268,-0.0271,-0.0263,-0.0272,-0.0261,-0.026,-0.0252,-0.0255,-0.0232,-0.0228,-0.0205,-0.0198,-0.0198,-0.0189,-0.0204,-0.0167,-0.0162,-0.0159,-0.0125,-0.0118,-0.0205,-0.0206,-0.0206,-0.0206,0,-0.0237,-0.0256,-0.0267,-0.0285,-0.0279,-0.0285,-0.0273,-0.0256,-0.0246,-0.0237,-0.0211,-0.0197,-0.0184,-0.0176,-0.018,-0.0149,-0.0149,-0.0166,-0.0176,-0.0151,-0.0117,-0.011,-0.0203,-0.0204,-0.0204,-0.0205,0,0,-0.0282,-0.0289,-0.0297,-0.0301,-0.029,-0.0294,-0.0267,-0.0249,-0.0234,-0.0209,-0.019,-0.0162,-0.0151,-0.0146,-0.014,-0.0118,-0.0072,-0.013,-0.013,-0.0096,-0.0021,0.0051,0.0066,-0.0088,-0.0087,-0.0087,-0.0003,0,-0.0308,-0.0344,-0.0327,-0.0335,-0.0352,-0.0312,-0.029,-0.0263,-0.0232,-0.0203,-0.0169,-0.015,-0.0141,-0.0133,-0.0106,-0.0084,-0.0055,-0.0093,-0.0052,-0.005,0.0012,0.0076,0.0062,0.0141,0.0004,0.0005,0.0006,0,-0.0356,-0.0373,-0.0397,-0.0374,-0.0375,-0.0362,-0.0322,-0.0299,-0.0241,-0.0215,-0.0172,-0.0148,-0.0096,-0.0104,-0.0031,-0.0058,-0.0037,-0.0017,-0.0014,0.0048,0.0036,0.009,0.0159,0.0233,0.0017,0.0016,0.0015,0,-0.0419,-0.042,-0.044,-0.0437,-0.0408,-0.0393,-0.0368,-0.0313,-0.0292,-0.0224,-0.0197,-0.0132,-0.0098,-0.0058,0.0009,-0.002,0.0089,0.005,0.0141,0.0146,0.0141,0.0145,0.0286,0.0095,0.0095,0.0094,0.0094,0,-0.0473,-0.0487,-0.0471,-0.0489,-0.0498,-0.0448,-0.0436,-0.0393,-0.0327,-0.0302,-0.0217,-0.017,-0.0089,-0.0012,0.0025,0.0136,0.0109,0.017,0.0181,0.0154,0.0158,0.0226,0.0247,0.0097,0.0097,0.0096,0.0096,0,-0.0549,-0.0536,-0.0564,-0.0544,-0.0537,-0.0551,-0.0501,-0.0483,-0.0401,-0.036,-0.0338,-0.0196,-0.0072,0.0028,0.012,0.0173,0.0304,0.0287,0.027,0.028,0.0433,0.0455,0.0604,0.0642,0.0402,0.0405,0.0407,0,-0.0587,-0.0616,-0.0633,-0.0652,-0.0646,-0.0644,-0.0637,-0.0552,-0.052,-0.0377,-0.036,-0.0201,-0.0097,0.0123,0.0255,0.0384,0.0406,0.0446,0.0393,0.0476,0.0508,0.051,0.053,0.0395,0.0397,0.0399,0.04,0,-0.0665,-0.0676,-0.0702,-0.0749,-0.0758,-0.0762,-0.0735,-0.0718,-0.0603,-0.0531,-0.0398,-0.0294,-0.0038,0.0158,0.0376,0.043,0.0506,0.0482,0.0556,0.0528,0.0548,0.0577,0.0316,0.0413,0.0412,0.0411,0.041,0.0409,-0.0717,-0.0763,-0.0795,-0.083,-0.0848,-0.0852,-0.0845,-0.0786,-0.0722,-0.0574,-0.0462,-0.0257,0.005,0.0375,0.046,0.0666,0.0628,0.0679,0.0703,0.0703,0.0739,0.0539,0.0657,0.0657,0.0657,0.0657,0.0657,0,-0.0768,-0.0809,-0.0859,-0.0893,-0.0914,-0.0903,-0.0878,-0.0834,-0.0752,-0.0596,-0.045,-0.0067,0.0205,0.0477,0.0782,0.087,0.0843,0.0908,0.0876,0.0887,0.0696,0.0695,0.0841,0.0841,0.0841,0.0841,0.0841,0.0841,-0.0794,-0.0856,-0.0877,-0.0921,-0.094,-0.0939,-0.0921,-0.0848,-0.0726,-0.0461,-0.0209,-0.0002,0.0397,0.0831,0.1066,0.1064,0.1121,0.1107,0.1171,0.1002,0.098,0.096,0.0966,0.1167,0.1167,0.1312,0.1313,0.1314]}],[{"header":{"parameterUnit":"m.s-1","parameterCategory":2,"la1":30.2991,"la2":30.254,"lo1":-89.0895,"lo2":-89.0444,"dy":0.0017,"dx":0.0017,"nx":28,"ny":28,"refTime":"2024-03-11T09:00:00:Z","depth":"2","parameterNumber":2,"parameterNumberName":"U-component_of_CURRENTS"},"data":[0,0,0,0,0,0,0,0,0,0,0,0,0,0,0,0,0,0,0,0,0,0,0,0,0,0,0,0,0,0,0,0,0,0,0,0,0,0,0,0,0,0,0,0,0,0,0,0,0,0,0,0,0,0,0,0,0,0,-0.1536,-0.1535,0,-0.1411,-0.1409,-0.1408,-0.1363,-0.1363,-0.1364,-0.1364,-0.1289,-0.1286,-0.1284,0,0,0,0,0,0,0,0,0,0,0,0,0,-0.1525,-0.1527,-0.1536,-0.1534,-0.1533,-0.1411,-0.1409,-0.1407,-0.1362,-0.1363,-0.1364,-0.1365,-0.129,-0.1287,-0.1283,0,0,0,0,0,0,0,0,0,0,0,0,0,-0.1477,-0.1527,-0.1536,-0.1497,-0.1493,-0.1411,-0.1409,-0.1407,-0.1362,-0.1363,-0.1364,-0.1365,-0.1291,-0.1287,-0.1283,-0.1242,0,0,-0.1271,-0.127,0,0,0,0,0,0,0,0,-0.148,-0.1477,-0.1504,-0.15,-0.1494,-0.1405,-0.1377,-0.1355,-0.1362,-0.141,-0.1364,-0.1365,-0.1333,-0.1325,-0.1297,-0.1238,-0.1235,-0.1271,-0.1269,-0.1267,-0.1266,0,0,0,0,0,0,0,-0.1484,-0.1481,-0.1485,-0.1503,-0.1497,-0.1414,-0.141,-0.1372,-0.1368,-0.1406,-0.1403,-0.1391,-0.133,-0.13,-0.1295,-0.1234,-0.1271,-0.1268,-0.1265,-0.1264,-0.1198,-0.1199,0,0,0,0,0,0,-0.1513,-0.1486,-0.1489,-0.1481,-0.1491,-0.1414,-0.1409,-0.1431,-0.1367,-0.1358,-0.1391,-0.139,-0.1307,-0.1299,-0.1292,-0.1306,-0.1267,-0.1263,-0.1261,-0.1197,-0.1198,-0.1199,0,0,0,0,0,0,-0.1514,-0.1516,-0.1494,-0.1479,-0.1471,-0.1415,-0.1439,-0.1428,-0.1418,-0.1355,-0.1347,-0.1394,-0.1307,-0.1298,-0.1271,-0.13,-0.1262,-0.1258,-0.1197,-0.1198,-0.1198,-0.1291,0,0,0,0,0,0,-0.1514,-0.1517,-0.1565,-0.1483,-0.1473,-0.1465,-0.1438,-0.1425,-0.1409,-0.1407,-0.1355,-0.1347,-0.1307,-0.1277,-0.1267,-0.1294,-0.1255,-0.1196,-0.1197,-0.1198,-0.1287,-0.1295,-0.1302,0,0,0,0,0,-0.1515,-0.1554,-0.1569,-0.157,-0.1535,-0.1465,-0.1453,-0.1412,-0.1409,-0.1406,-0.137,-0.135,-0.1277,-0.1274,-0.1262,-0.1289,-0.1196,-0.1197,-0.1198,-0.1284,-0.1294,-0.1302,0,0,0,0,0,0,-0.1546,-0.1551,-0.1565,-0.1602,-0.1555,-0.1459,-0.1458,-0.1426,-0.1392,-0.1403,-0.1345,-0.1334,-0.1322,-0.1289,-0.1287,-0.1273,-0.1238,-0.1237,-0.1307,-0.1316,-0.1323,-0.1351,-0.1252,0,0,0,0,0,-0.1587,-0.1651,-0.1593,-0.1631,-0.1609,-0.1542,-0.1519,-0.1488,-0.1434,-0.1421,-0.1383,-0.1348,-0.1312,-0.1303,-0.1263,-0.1253,-0.1259,-0.1265,-0.1273,-0.1279,-0.1294,-0.1304,-0.1314,-0.1203,-0.1203,-0.1203,0,0,-0.1596,-0.1626,-0.1649,-0.1648,-0.1611,-0.1579,-0.153,-0.15,-0.1486,-0.1419,-0.1408,-0.1368,-0.1312,-0.1297,-0.1292,-0.128,-0.1323,-0.1281,-0.1287,-0.1298,-0.1306,-0.1317,-0.1327,-0.1204,-0.1203,-0.1203,0,0,-0.165,-0.1682,-0.1744,-0.1705,-0.168,-0.163,-0.1629,-0.1551,-0.1536,-0.1506,-0.1461,-0.144,-0.1384,-0.1353,-0.1328,-0.1351,-0.1354,-0.1347,-0.1415,-0.1425,-0.1434,-0.1443,-0.1513,-0.1527,-0.1359,-0.136,-0.136,0,-0.1667,-0.1733,-0.1736,-0.1752,-0.1728,-0.1658,-0.1653,-0.1611,-0.1543,-0.1548,-0.1522,-0.146,-0.141,-0.1398,-0.1402,-0.137,-0.1398,-0.1389,-0.1437,-0.1445,-0.1452,-0.1521,-0.1536,-0.1364,-0.1364,-0.1363,-0.1363,0,-0.1716,-0.1772,-0.178,-0.1809,-0.1792,-0.1755,-0.1699,-0.1692,-0.1669,-0.1634,-0.1626,-0.1552,-0.1522,-0.1503,-0.1454,-0.1484,-0.1498,-0.144,-0.1422,-0.147,-0.1539,-0.1553,-0.1371,-0.1369,-0.1368,-0.1367,0,0,-0.171,-0.1806,-0.1802,-0.1838,-0.1806,-0.1781,-0.1791,-0.1766,-0.1791,-0.1732,-0.1769,-0.1681,-0.1658,-0.1627,-0.1573,-0.1577,-0.1652,-0.1543,-0.1541,-0.1629,-0.1736,-0.1634,-0.1638,-0.1608,-0.161,-0.1611,-0.1783,0,-0.1729,-0.1801,-0.1845,-0.187,-0.1873,-0.185,-0.187,-0.1859,-0.1849,-0.1867,-0.1807,-0.1793,-0.1698,-0.1694,-0.1685,-0.1648,-0.1684,-0.1615,-0.1664,-0.1667,-0.158,-0.1647,-0.1454,-0.1578,-0.1795,-0.1797,-0.1799,0,-0.1729,-0.1791,-0.1841,-0.1934,-0.1933,-0.1941,-0.1976,-0.1994,-0.2012,-0.2007,-0.1997,-0.195,-0.1932,-0.1844,-0.1837,-0.1803,-0.1789,-0.1765,-0.1769,-0.1646,-0.1585,-0.1554,-0.1594,-0.1821,-0.1819,-0.1817,-0.1816,0,-0.1688,-0.1778,-0.1837,-0.1834,-0.1913,-0.1956,-0.1997,-0.2037,-0.2061,-0.21,-0.2124,-0.2096,-0.2099,-0.2047,-0.1976,-0.192,-0.2004,-0.1912,-0.1827,-0.1823,-0.1651,-0.1627,-0.1941,-0.1941,-0.1941,-0.194,-0.194,0,-0.166,-0.1699,-0.1822,-0.1822,-0.1896,-0.1972,-0.2049,-0.2084,-0.2152,-0.216,-0.2192,-0.2168,-0.2148,-0.2165,-0.2076,-0.2008,-0.2082,-0.1868,-0.1852,-0.1681,-0.1658,-0.1838,-0.1824,-0.1947,-0.1945,-0.1944,-0.1943,0,-0.1595,-0.1674,-0.1741,-0.1847,-0.1878,-0.1933,-0.2046,-0.2075,-0.218,-0.2203,-0.2209,-0.2268,-0.2238,-0.2247,-0.2217,-0.2144,-0.2075,-0.2044,-0.188,-0.1837,-0.1878,-0.1866,-0.1958,-0.1955,-0.1953,-0.1951,-0.195,0,-0.1566,-0.1599,-0.1719,-0.1737,-0.1782,-0.1874,-0.1903,-0.2036,-0.2049,-0.2181,-0.2152,-0.2232,-0.2148,-0.2171,-0.2067,-0.1996,-0.2039,-0.1835,-0.164,-0.19,-0.1876,-0.1868,-0.1859,-0.1495,-0.149,-0.1486,-0.1482,0,-0.1489,-0.1546,-0.1583,-0.1626,-0.1667,-0.1723,-0.1782,-0.1802,-0.1925,-0.1961,-0.1959,-0.1943,-0.1974,-0.1801,-0.1821,-0.1723,-0.1814,-0.1742,-0.2083,-0.1487,-0.1467,-0.1442,-0.1449,-0.1446,-0.1449,-0.1452,-0.1454,-0.1456,-0.1397,-0.1417,-0.1459,-0.1488,-0.1523,-0.1521,-0.1523,-0.156,-0.1581,-0.1594,-0.1667,-0.161,-0.1659,-0.1488,-0.1434,-0.1434,-0.1509,-0.1438,-0.145,-0.1467,-0.1349,-0.1321,-0.1258,-0.126,-0.1262,-0.1264,-0.1266,0,-0.1267,-0.1293,-0.1301,-0.1331,-0.1294,-0.1369,-0.1378,-0.1347,-0.1297,-0.1312,-0.1283,-0.1152,-0.1059,-0.1125,-0.1028,-0.1033,-0.1028,-0.1012,-0.0982,-0.1017,-0.1049,-0.0909,-0.0703,-0.0701,-0.07,-0.0699,0,0,-0.1209,-0.1164,-0.118,-0.1085,-0.1089,-0.1021,-0.1001,-0.0965,-0.0957,-0.088,-0.0846,-0.0913,-0.1006,-0.0816,-0.0806,-0.0729,-0.0865,-0.0698,-0.1137,-0.113,-0.116,-0.1273,-0.1093,0,0,0,0,0]},{"header":{"parameterUnit":"m.s-1","parameterCategory":2,"la1":30.2991,"la2":30.254,"lo1":-89.0895,"lo2":-89.0444,"dy":0.0017,"dx":0.0017,"nx":28,"ny":28,"refTime":"2024-03-11T09:00:00:Z","depth":"2","parameterNumber":3,"parameterNumberName":"V-component_of_CURRENTS"},"data":[0,0,0,0,0,0,0,0,0,0,0,0,0,0,0,0,0,0,0,0,0,0,0,0,0,0,0,0,0,0,0,0,0,0,0,0,0,0,0,0,0,0,0,0,0,0,0,0,0,0,0,0,0,0,0,0,0,0,-0.0205,-0.0205,0,-0.0182,-0.0181,-0.0181,-0.0182,-0.0182,-0.0183,-0.0184,-0.0183,-0.0182,-0.0182,0,0,0,0,0,0,0,0,0,0,0,0,0,-0.0145,-0.0146,-0.0205,-0.0205,-0.0205,-0.0182,-0.0181,-0.0181,-0.0182,-0.0182,-0.0183,-0.0184,-0.0183,-0.0182,-0.0182,0,0,0,0,0,0,0,0,0,0,0,0,0,-0.0148,-0.0146,-0.0205,-0.0206,-0.0206,-0.0182,-0.0181,-0.0181,-0.0181,-0.0182,-0.0183,-0.0184,-0.0183,-0.0182,-0.0181,-0.0155,0,0,-0.0178,-0.0178,0,0,0,0,0,0,0,0,-0.0148,-0.0149,-0.0205,-0.0205,-0.0206,-0.0189,-0.016,-0.0174,-0.0181,-0.0186,-0.0184,-0.0185,-0.0189,-0.0188,-0.0175,-0.0155,-0.0155,-0.0178,-0.0178,-0.0177,-0.0177,0,0,0,0,0,0,0,-0.0147,-0.015,-0.0192,-0.0205,-0.0206,-0.0172,-0.0174,-0.0162,-0.0179,-0.0186,-0.0187,-0.0191,-0.0189,-0.0176,-0.0175,-0.0155,-0.0178,-0.0177,-0.0177,-0.0176,-0.0141,-0.0141,0,0,0,0,0,0,-0.0163,-0.015,-0.0192,-0.0191,-0.0183,-0.0173,-0.0175,-0.019,-0.0179,-0.0179,-0.019,-0.0191,-0.0177,-0.0176,-0.0175,-0.017,-0.0177,-0.0176,-0.0176,-0.0141,-0.0141,-0.0141,0,0,0,0,0,0,-0.0162,-0.0167,-0.0193,-0.0172,-0.0174,-0.0174,-0.019,-0.0189,-0.0192,-0.0182,-0.0183,-0.0196,-0.0178,-0.0177,-0.0168,-0.0169,-0.0176,-0.0175,-0.0142,-0.0141,-0.0141,-0.0143,0,0,0,0,0,0,-0.0161,-0.0167,-0.0181,-0.0174,-0.0176,-0.019,-0.019,-0.0188,-0.0194,-0.0195,-0.0188,-0.0188,-0.0178,-0.0169,-0.0167,-0.0168,-0.0174,-0.0142,-0.0142,-0.0141,-0.0144,-0.0143,-0.0142,0,0,0,0,0,-0.0159,-0.0176,-0.0182,-0.0187,-0.0197,-0.019,-0.0187,-0.0187,-0.0193,-0.0193,-0.0184,-0.0189,-0.0164,-0.0168,-0.0165,-0.0166,-0.0143,-0.0142,-0.0141,-0.0144,-0.0143,-0.0142,0,0,0,0,0,0,-0.0157,-0.0178,-0.0185,-0.0208,-0.0205,-0.0192,-0.0197,-0.0193,-0.0184,-0.0191,-0.0179,-0.0178,-0.0171,-0.0166,-0.0171,-0.0154,-0.0156,-0.0154,-0.0159,-0.0158,-0.0157,-0.0153,-0.0173,0,0,0,0,0,-0.0165,-0.0187,-0.019,-0.021,-0.0213,-0.0206,-0.0204,-0.0203,-0.0196,-0.0193,-0.0185,-0.0176,-0.0161,-0.016,-0.0146,-0.0136,-0.0115,-0.0136,-0.0135,-0.0135,-0.0129,-0.0097,-0.0093,-0.0138,-0.0138,-0.0138,0,0,-0.0169,-0.0185,-0.0196,-0.0211,-0.0211,-0.0212,-0.0207,-0.0212,-0.0205,-0.0194,-0.0185,-0.0173,-0.0157,-0.0143,-0.014,-0.0142,-0.0109,-0.0134,-0.0133,-0.0127,-0.0096,-0.0092,-0.0088,-0.0138,-0.0138,-0.0138,0,0,-0.0191,-0.0205,-0.0232,-0.0228,-0.0237,-0.0224,-0.0231,-0.0222,-0.0214,-0.0199,-0.0188,-0.0172,-0.0158,-0.0137,-0.0127,-0.0113,-0.0105,-0.0123,-0.0117,-0.0087,-0.0083,-0.0079,-0.0037,-0.003,-0.0124,-0.0124,-0.0124,0,-0.0198,-0.023,-0.0233,-0.025,-0.025,-0.0235,-0.0246,-0.0225,-0.021,-0.0194,-0.0202,-0.0158,-0.0149,-0.0116,-0.0114,-0.0111,-0.0094,-0.0123,-0.0086,-0.0081,-0.0078,-0.0036,-0.0028,-0.0124,-0.0124,-0.0124,-0.0124,0,-0.023,-0.0253,-0.0265,-0.0282,-0.0278,-0.0282,-0.0261,-0.0243,-0.023,-0.0206,-0.0175,-0.015,-0.0123,-0.0121,-0.0115,-0.0084,-0.008,-0.0087,-0.0088,-0.0073,-0.003,-0.0021,-0.0124,-0.0124,-0.0124,-0.0124,0,0,-0.0261,-0.0284,-0.0291,-0.0305,-0.0295,-0.0298,-0.0271,-0.0241,-0.0219,-0.0192,-0.016,-0.0129,-0.0114,-0.01,-0.0088,-0.0064,-0.002,-0.0071,-0.0069,-0.003,0.0053,0.0066,0.0076,-0.0029,-0.0028,-0.0027,0.0075,0,-0.0288,-0.0334,-0.0325,-0.0345,-0.0367,-0.0326,-0.0302,-0.0268,-0.0227,-0.0184,-0.014,-0.011,-0.0106,-0.0098,-0.0069,-0.0031,0.0001,-0.0046,0.0033,0.0036,0.0045,0.0086,0.0058,0.0147,0.0083,0.0085,0.0086,0,-0.033,-0.0356,-0.0393,-0.0391,-0.0393,-0.0386,-0.0342,-0.0314,-0.0234,-0.0201,-0.0148,-0.0112,-0.0055,-0.0066,0.0023,-0.0012,0.0019,0.0048,0.0053,0.0072,0.0065,0.012,0.0165,0.0101,0.01,0.0098,0.0097,0,-0.0382,-0.0402,-0.0435,-0.0436,-0.0424,-0.0415,-0.0393,-0.0327,-0.0303,-0.021,-0.0185,-0.0099,-0.0065,-0.0008,0.0065,0.0038,0.0163,0.0136,0.0185,0.0187,0.0184,0.0184,0.0196,0.0196,0.0195,0.0195,0.0195,0,-0.0428,-0.0453,-0.0463,-0.0483,-0.0504,-0.0469,-0.0458,-0.041,-0.0341,-0.0312,-0.0209,-0.0173,-0.0055,0.0031,0.0085,0.018,0.0186,0.0205,0.0218,0.0184,0.0182,0.0151,0.0144,0.0199,0.0198,0.0197,0.0197,0,-0.0494,-0.0497,-0.0541,-0.0541,-0.0542,-0.0561,-0.053,-0.0507,-0.0429,-0.0386,-0.0363,-0.0222,-0.0105,0.0027,0.0148,0.0204,0.0293,0.0319,0.0283,0.029,0.0289,0.0281,0.0384,0.0385,0.0386,0.0387,0.0388,0,-0.0528,-0.0565,-0.0607,-0.0634,-0.0638,-0.0648,-0.0645,-0.0574,-0.0544,-0.0429,-0.0414,-0.0272,-0.0171,0.0054,0.0187,0.0334,0.0323,0.0393,0.0333,0.0308,0.0311,0.0301,0.0292,0.0336,0.0337,0.0337,0.0337,0,-0.0596,-0.062,-0.0657,-0.0718,-0.074,-0.0753,-0.0738,-0.0732,-0.0633,-0.0569,-0.0462,-0.0367,-0.0149,0.0035,0.0248,0.0309,0.0372,0.04,0.0404,0.0284,0.027,0.0269,0.0261,0.034,0.0339,0.0339,0.0339,0.0339,-0.0636,-0.0693,-0.0742,-0.0792,-0.0819,-0.0831,-0.083,-0.0782,-0.0728,-0.0597,-0.0511,-0.0328,-0.0149,0.015,0.0269,0.0385,0.0372,0.0406,0.0403,0.04,0.0368,0.0355,0.0436,0.0436,0.0437,0.0437,0.0437,0,-0.0675,-0.0735,-0.0798,-0.0851,-0.0877,-0.0875,-0.0862,-0.0823,-0.0746,-0.0605,-0.0468,-0.0256,-0.0043,0.0129,0.0308,0.0411,0.0382,0.0425,0.0375,0.0373,0.037,0.0334,0.0395,0.0395,0.0395,0.0395,0,0,-0.07,-0.0773,-0.0812,-0.0871,-0.09,-0.0908,-0.0895,-0.0826,-0.0715,-0.0558,-0.04,-0.0204,-0.0005,0.0123,0.0244,0.033,0.0318,0.0325,0.0349,0.0272,0.0269,0.0351,0.0291,0,0,0,0,0]}],[{"header":{"parameterUnit":"m.s-1","parameterCategory":2,"la1":30.2991,"la2":30.254,"lo1":-89.0895,"lo2":-89.0444,"dy":0.0017,"dx":0.0017,"nx":28,"ny":28,"refTime":"2024-03-11T09:00:00:Z","depth":"4","parameterNumber":2,"parameterNumberName":"U-component_of_CURRENTS"},"data":[0,0,0,0,0,0,0,0,0,0,0,0,0,0,0,0,0,0,0,0,0,0,0,0,0,0,0,0,0,0,0,0,0,0,0,0,0,0,0,0,0,0,0,0,0,0,0,0,0,0,0,0,0,0,0,0,0,0,-0.0556,-0.0556,0,-0.0571,-0.0571,-0.0571,-0.0585,-0.0585,-0.0585,-0.0584,-0.0643,-0.0645,-0.0646,0,0,0,0,0,0,0,0,0,0,0,0,0,-0.0689,-0.0686,-0.0556,-0.0556,-0.0556,-0.057,-0.0571,-0.0572,-0.0585,-0.0585,-0.0584,-0.0584,-0.0642,-0.0644,-0.0646,0,0,0,0,0,0,0,0,0,0,0,0,0,-0.0663,-0.0685,-0.0556,-0.0561,-0.0562,-0.057,-0.0571,-0.0572,-0.0585,-0.0585,-0.0584,-0.0584,-0.0642,-0.0644,-0.0647,-0.0668,0,0,-0.0655,-0.0656,0,0,0,0,0,0,0,0,-0.0665,-0.0659,-0.0561,-0.0561,-0.0561,-0.0572,-0.0639,-0.0605,-0.0585,-0.058,-0.0584,-0.0584,-0.0621,-0.0625,-0.0633,-0.0671,-0.0674,-0.0655,-0.0656,-0.0658,-0.0658,0,0,0,0,0,0,0,-0.0666,-0.0659,-0.0566,-0.056,-0.0561,-0.0614,-0.0609,-0.0634,-0.0606,-0.0581,-0.0581,-0.0576,-0.0622,-0.0631,-0.0635,-0.0674,-0.0655,-0.0657,-0.0659,-0.066,-0.0751,-0.0752,0,0,0,0,0,0,-0.0648,-0.0659,-0.0565,-0.0566,-0.0609,-0.0611,-0.0606,-0.0572,-0.0605,-0.0608,-0.0576,-0.0577,-0.0627,-0.0632,-0.0637,-0.0686,-0.0658,-0.066,-0.0661,-0.075,-0.0751,-0.0752,0,0,0,0,0,0,-0.0651,-0.0639,-0.0564,-0.0613,-0.0606,-0.0607,-0.0571,-0.0572,-0.0583,-0.06,-0.0605,-0.0584,-0.0627,-0.0633,-0.067,-0.0687,-0.0661,-0.0663,-0.0749,-0.075,-0.0751,-0.077,0,0,0,0,0,0,-0.0654,-0.0639,-0.0624,-0.061,-0.0602,-0.057,-0.0571,-0.0573,-0.0578,-0.0579,-0.0609,-0.0613,-0.0627,-0.0666,-0.0672,-0.069,-0.0666,-0.0748,-0.0749,-0.0751,-0.0768,-0.0772,-0.0775,0,0,0,0,0,-0.0658,-0.063,-0.0622,-0.0612,-0.0575,-0.057,-0.0573,-0.0577,-0.0579,-0.0586,-0.0611,-0.0613,-0.068,-0.0669,-0.0676,-0.0696,-0.0747,-0.0749,-0.0751,-0.0767,-0.0771,-0.0775,0,0,0,0,0,0,-0.0693,-0.0628,-0.0619,-0.0576,-0.0575,-0.0571,-0.0575,-0.0579,-0.0604,-0.0607,-0.0628,-0.0635,-0.0667,-0.0682,-0.0669,-0.0726,-0.0713,-0.0716,-0.0722,-0.0726,-0.0729,-0.0733,-0.0668,0,0,0,0,0,-0.0688,-0.0645,-0.0614,-0.0589,-0.0579,-0.058,-0.0583,-0.0583,-0.0595,-0.0605,-0.0631,-0.0658,-0.0681,-0.0704,-0.0722,-0.0763,-0.0769,-0.0779,-0.0782,-0.0785,-0.0793,-0.0814,-0.082,-0.0758,-0.0758,-0.0758,0,0,-0.0703,-0.0658,-0.064,-0.0594,-0.059,-0.059,-0.0582,-0.0579,-0.0602,-0.0609,-0.0656,-0.0665,-0.0691,-0.0729,-0.0746,-0.0747,-0.0806,-0.0787,-0.0789,-0.0796,-0.0817,-0.0823,-0.0828,-0.076,-0.0759,-0.0759,0,0,-0.071,-0.0661,-0.0633,-0.0623,-0.0602,-0.0603,-0.06,-0.06,-0.0619,-0.0653,-0.0664,-0.0688,-0.0733,-0.0757,-0.0774,-0.0809,-0.0812,-0.0814,-0.0848,-0.0868,-0.0873,-0.0878,-0.0891,-0.0897,-0.0828,-0.0828,-0.0828,0,-0.0736,-0.0685,-0.0637,-0.0616,-0.0623,-0.0607,-0.0616,-0.0629,-0.0652,-0.0674,-0.0669,-0.0731,-0.0747,-0.08,-0.0811,-0.0817,-0.0826,-0.083,-0.0872,-0.0877,-0.0881,-0.0893,-0.0899,-0.0829,-0.0829,-0.0828,-0.0828,0,-0.0722,-0.0698,-0.0685,-0.0648,-0.0652,-0.0655,-0.0657,-0.0677,-0.0693,-0.0706,-0.0751,-0.0776,-0.0815,-0.0821,-0.083,-0.0875,-0.0871,-0.0862,-0.086,-0.0888,-0.09,-0.0905,-0.083,-0.083,-0.083,-0.0829,0,0,-0.0741,-0.0687,-0.0689,-0.069,-0.0672,-0.0677,-0.0707,-0.0733,-0.0763,-0.078,-0.0836,-0.086,-0.0861,-0.0881,-0.0896,-0.0918,-0.0952,-0.0911,-0.0911,-0.092,-0.0996,-0.0945,-0.0947,-0.0951,-0.0953,-0.0953,-0.099,0,-0.0759,-0.0746,-0.0714,-0.0737,-0.0736,-0.0735,-0.0768,-0.0788,-0.0814,-0.0862,-0.0877,-0.0922,-0.089,-0.0921,-0.0934,-0.0936,-0.0969,-0.0942,-0.0971,-0.0972,-0.092,-0.0952,-0.0957,-0.0995,-0.0996,-0.0997,-0.0998,0,-0.0751,-0.0749,-0.0772,-0.0782,-0.0783,-0.0805,-0.0859,-0.0882,-0.0922,-0.0942,-0.0971,-0.0983,-0.1013,-0.0997,-0.1007,-0.099,-0.1005,-0.1007,-0.1008,-0.096,-0.0932,-0.0962,-0.1008,-0.1008,-0.1007,-0.1006,-0.1005,0,-0.0783,-0.0788,-0.0818,-0.082,-0.0828,-0.086,-0.0882,-0.0915,-0.0943,-0.1006,-0.1033,-0.1052,-0.1079,-0.1077,-0.1052,-0.1043,-0.1067,-0.1054,-0.103,-0.1026,-0.1051,-0.1046,-0.1101,-0.1101,-0.1101,-0.1101,-0.1101,0,-0.079,-0.0813,-0.0843,-0.0849,-0.0904,-0.0903,-0.0963,-0.0979,-0.1025,-0.1054,-0.1079,-0.111,-0.1103,-0.1105,-0.1083,-0.1052,-0.1085,-0.1043,-0.1036,-0.1058,-0.1053,-0.1055,-0.1049,-0.1102,-0.1102,-0.1101,-0.1101,0,-0.0792,-0.0809,-0.0837,-0.0881,-0.0905,-0.0943,-0.0996,-0.1025,-0.1068,-0.1118,-0.1141,-0.1159,-0.1153,-0.1139,-0.1142,-0.109,-0.1073,-0.1074,-0.1097,-0.1089,-0.1017,-0.1011,-0.1048,-0.1046,-0.1045,-0.1044,-0.1043,0,-0.0782,-0.0795,-0.0859,-0.0882,-0.0903,-0.0968,-0.0998,-0.1045,-0.1072,-0.113,-0.1146,-0.1183,-0.1189,-0.1128,-0.1119,-0.1086,-0.1083,-0.1066,-0.1044,-0.1024,-0.1014,-0.101,-0.1007,-0.1041,-0.1041,-0.1041,-0.1041,0,-0.0753,-0.0784,-0.0805,-0.0865,-0.091,-0.0953,-0.1007,-0.1027,-0.1073,-0.1139,-0.1135,-0.1132,-0.1142,-0.1104,-0.1093,-0.1066,-0.1054,-0.1053,-0.1056,-0.1036,-0.1016,-0.1007,-0.1005,-0.1036,-0.1037,-0.1037,-0.1038,0,-0.0727,-0.0743,-0.0774,-0.0821,-0.0877,-0.0898,-0.0943,-0.0973,-0.1005,-0.1077,-0.1077,-0.1103,-0.1141,-0.1098,-0.1073,-0.1046,-0.1039,-0.0996,-0.1001,-0.1006,-0.0971,-0.0938,-0.0938,0,0,0,0,0,-0.0687,-0.0689,-0.0722,-0.0755,-0.081,-0.0834,-0.0915,-0.0957,-0.1038,-0.1019,-0.1043,-0.105,-0.1028,-0.1033,-0.0997,-0.1053,-0.1034,-0.1006,-0.0985,-0.1014,-0.1018,-0.0978,0,0,0,0,0,0,-0.0647,-0.0675,-0.0692,-0.0689,-0.0695,-0.0737,-0.0781,-0.0835,-0.0836,-0.0923,-0.0917,-0.0985,-0.0976,-0.1027,-0.0969,-0.0974,-0.0942,-0.1033,-0.1031,-0.1011,-0.1015,-0.1019,-0.0979,0,0,0,0,0]},{"header":{"parameterUnit":"m.s-1","parameterCategory":2,"la1":30.2991,"la2":30.254,"lo1":-89.0895,"lo2":-89.0444,"dy":0.0017,"dx":0.0017,"nx":28,"ny":28,"refTime":"2024-03-11T09:00:00:Z","depth":"4","parameterNumber":3,"parameterNumberName":"V-component_of_CURRENTS"},"data":[0,0,0,0,0,0,0,0,0,0,0,0,0,0,0,0,0,0,0,0,0,0,0,0,0,0,0,0,0,0,0,0,0,0,0,0,0,0,0,0,0,0,0,0,0,0,0,0,0,0,0,0,0,0,0,0,0,0,-0.0054,-0.0054,0,-0.0064,-0.0064,-0.0064,-0.0041,-0.0041,-0.004,-0.0039,-0.0016,-0.0016,-0.0016,0,0,0,0,0,0,0,0,0,0,0,0,0,-0.0041,-0.0041,-0.0054,-0.0054,-0.0054,-0.0064,-0.0064,-0.0064,-0.0041,-0.0041,-0.004,-0.0039,-0.0016,-0.0016,-0.0016,0,0,0,0,0,0,0,0,0,0,0,0,0,-0.0047,-0.0041,-0.0054,-0.0045,-0.0045,-0.0064,-0.0064,-0.0064,-0.0041,-0.0041,-0.004,-0.0039,-0.0016,-0.0016,-0.0016,-0.0034,0,0,-0.0016,-0.0016,0,0,0,0,0,0,0,0,-0.0047,-0.0047,-0.0046,-0.0046,-0.0045,-0.0052,-0.0051,-0.0053,-0.0042,-0.0041,-0.0039,-0.0038,-0.0027,-0.0026,-0.0028,-0.0033,-0.0032,-0.0016,-0.0016,-0.0016,-0.0016,0,0,0,0,0,0,0,-0.0046,-0.0047,-0.0056,-0.0047,-0.0046,-0.005,-0.0049,-0.0051,-0.0037,-0.0041,-0.004,-0.0043,-0.0026,-0.0028,-0.0027,-0.0032,-0.0016,-0.0016,-0.0016,-0.0016,-0.004,-0.0041,0,0,0,0,0,0,-0.0047,-0.0046,-0.0056,-0.0057,-0.0045,-0.0051,-0.005,-0.0049,-0.0038,-0.0036,-0.0044,-0.0042,-0.0029,-0.0027,-0.0026,-0.0033,-0.0016,-0.0016,-0.0016,-0.0039,-0.004,-0.0041,0,0,0,0,0,0,-0.0047,-0.0048,-0.0056,-0.0053,-0.0055,-0.0052,-0.0051,-0.005,-0.0046,-0.0041,-0.0038,-0.0041,-0.0028,-0.0027,-0.0025,-0.0032,-0.0016,-0.0016,-0.0039,-0.004,-0.0041,-0.0054,0,0,0,0,0,0,-0.0046,-0.0048,-0.0048,-0.0053,-0.0055,-0.0069,-0.0052,-0.0051,-0.0051,-0.0048,-0.0038,-0.0035,-0.0027,-0.0025,-0.0025,-0.0031,-0.0016,-0.0038,-0.0039,-0.004,-0.0053,-0.0055,-0.0058,0,0,0,0,0,-0.0046,-0.005,-0.0048,-0.0049,-0.0055,-0.007,-0.0071,-0.0065,-0.0052,-0.0057,-0.0045,-0.0035,-0.0033,-0.0025,-0.0025,-0.0032,-0.0037,-0.0039,-0.004,-0.0052,-0.0055,-0.0057,0,0,0,0,0,0,-0.0048,-0.0048,-0.0046,-0.005,-0.0061,-0.0067,-0.0072,-0.0066,-0.0062,-0.0055,-0.0042,-0.0039,-0.0045,-0.0038,-0.003,-0.0044,-0.0035,-0.0036,-0.0043,-0.0046,-0.0049,-0.0052,-0.0016,0,0,0,0,0,-0.0049,-0.0049,-0.0056,-0.0062,-0.0067,-0.0069,-0.0073,-0.0071,-0.0069,-0.0066,-0.0057,-0.0051,-0.0054,-0.0048,-0.0053,-0.0056,-0.0038,-0.0062,-0.0064,-0.0066,-0.0069,-0.0044,-0.0044,-0.0046,-0.0046,-0.0046,0,0,-0.0054,-0.0053,-0.0055,-0.0063,-0.0069,-0.0085,-0.0069,-0.0078,-0.0087,-0.0065,-0.0068,-0.0063,-0.0059,-0.0066,-0.0067,-0.0057,-0.0057,-0.0068,-0.007,-0.0072,-0.0046,-0.0045,-0.0045,-0.0047,-0.0047,-0.0047,0,0,-0.0067,-0.0062,-0.0069,-0.008,-0.009,-0.0094,-0.0097,-0.0102,-0.0097,-0.0106,-0.0092,-0.0086,-0.0091,-0.0084,-0.0082,-0.0102,-0.0076,-0.0106,-0.0111,-0.0087,-0.0086,-0.0085,-0.006,-0.0056,-0.0099,-0.0099,-0.0099,0,-0.0075,-0.0084,-0.0077,-0.0091,-0.0106,-0.0099,-0.0121,-0.0119,-0.0122,-0.0121,-0.0111,-0.0109,-0.0102,-0.0101,-0.0107,-0.0106,-0.0087,-0.0098,-0.0089,-0.0087,-0.0086,-0.006,-0.0056,-0.01,-0.01,-0.01,-0.01,0,-0.0097,-0.0107,-0.0115,-0.0129,-0.0143,-0.0161,-0.0165,-0.0166,-0.0159,-0.0158,-0.0157,-0.0141,-0.0137,-0.0135,-0.0126,-0.0118,-0.0105,-0.0098,-0.0077,-0.0086,-0.0059,-0.0054,-0.0101,-0.0101,-0.0101,-0.01,0,0,-0.0115,-0.0127,-0.0134,-0.0152,-0.0166,-0.0186,-0.0193,-0.0205,-0.0207,-0.0198,-0.0198,-0.0192,-0.0172,-0.0169,-0.015,-0.0125,-0.0097,-0.0107,-0.0105,-0.0074,-0.0038,-0.0035,-0.0029,-0.0083,-0.0083,-0.0082,-0.0021,0,-0.0141,-0.0177,-0.0173,-0.0217,-0.0241,-0.0236,-0.025,-0.0256,-0.0245,-0.0241,-0.0213,-0.021,-0.0188,-0.0179,-0.0152,-0.0127,-0.0087,-0.0115,-0.004,-0.0038,-0.0028,-0.0025,-0.0081,-0.0017,-0.0016,-0.0016,-0.0015,0,-0.0173,-0.0193,-0.0238,-0.0268,-0.0278,-0.03,-0.0319,-0.0324,-0.0306,-0.0296,-0.027,-0.0245,-0.0219,-0.0189,-0.013,-0.0148,-0.009,-0.0056,-0.0053,-0.0043,-0.0027,-0.0008,-0.0007,-0.0007,-0.0008,-0.0009,-0.0009,0,-0.0211,-0.0244,-0.0283,-0.0297,-0.0324,-0.0341,-0.035,-0.0346,-0.035,-0.032,-0.0318,-0.0276,-0.0258,-0.0194,-0.0126,-0.0125,-0.0051,-0.0041,0.0027,0.0028,0.0014,0.0012,0.0031,0.0031,0.0031,0.0031,0.0031,0,-0.0248,-0.0281,-0.0305,-0.0332,-0.0383,-0.0381,-0.0411,-0.0408,-0.0394,-0.0396,-0.0346,-0.0329,-0.0256,-0.0203,-0.0133,-0.0051,-0.0052,0.0026,0.0044,0.0006,0.0003,0.0017,0.0015,0.0033,0.0033,0.0032,0.0032,0,-0.0289,-0.03,-0.0351,-0.0388,-0.0404,-0.0441,-0.0461,-0.047,-0.0452,-0.0446,-0.0438,-0.0378,-0.0303,-0.0221,-0.0116,-0.0065,0.0017,0.0063,0.0014,0.0028,0.0085,0.0081,0.0132,0.0132,0.0133,0.0133,0.0134,0,-0.031,-0.0339,-0.0403,-0.0437,-0.0457,-0.0497,-0.0518,-0.0508,-0.0503,-0.0469,-0.0464,-0.0391,-0.0336,-0.0189,-0.0108,0.0025,0.0058,0.0095,0.0094,0.0083,0.0095,0.009,0.0086,0.0135,0.0135,0.0135,0.0135,0,-0.0352,-0.0376,-0.0418,-0.0492,-0.0531,-0.0566,-0.0583,-0.0586,-0.0552,-0.0542,-0.046,-0.0373,-0.0282,-0.0171,-0.0065,0.0031,0.0052,0.0101,0.0101,0.0101,0.0087,0.0097,0.0092,0.0137,0.0137,0.0136,0.0136,0,-0.0378,-0.0423,-0.0478,-0.054,-0.059,-0.0615,-0.0622,-0.059,-0.0577,-0.0513,-0.0484,-0.0374,-0.0304,-0.0165,-0.0076,0.0016,0.0045,0.0072,0.0074,0.0073,0.0033,0.0005,0.0048,0,0,0,0,0,-0.0396,-0.0448,-0.0517,-0.0579,-0.0624,-0.0646,-0.0655,-0.0641,-0.0602,-0.0538,-0.0501,-0.0398,-0.0243,-0.0181,-0.0084,-0.0087,0.0034,0.0026,0.0059,0.0147,0.0145,0.0108,0,0,0,0,0,0,-0.0407,-0.0478,-0.0523,-0.0591,-0.0629,-0.0668,-0.067,-0.0646,-0.0591,-0.0538,-0.0447,-0.0381,-0.0231,-0.0292,-0.0082,-0.0058,-0.0025,0.0104,0.0106,0.0148,0.0146,0.0145,0.0105,0,0,0,0,0]}]]